This is the latest recevied weather packets stored in our database for station/object IU6BJT. If no packets are shown the sender has not sent any weather packets the latest 10 day(s).
| Time | Temp. | Humidity | Pressure | Rain* | Wind** | Luminosity | Snow |
|---|---|---|---|---|---|---|---|
| 1777612221 | 6.67° C | 81% | 1024.8 hPa | 0 mm | - | - | - |
| 1777611035 | 6.11° C | 83% | 1024.6 hPa | 0 mm | - | - | - |
| 1777609831 | 5.56° C | 84% | 1024.7 hPa | 0 mm | - | - | - |
| 1777608624 | 5.56° C | 84% | 1024.5 hPa | 0 mm | - | - | - |
| 1777607418 | 6.11° C | 82% | 1024.4 hPa | 0 mm | - | - | - |
| 1777605649 | 6.11° C | 83% | 1024.4 hPa | 0 mm | - | - | - |
| 1777604443 | 5.56° C | 85% | 1024.5 hPa | 0 mm | - | - | - |
| 1777601469 | 6.11° C | 84% | 1024.5 hPa | 0 mm | - | - | - |
| 1777599642 | 6.11° C | 83% | 1024.6 hPa | 0 mm | - | - | - |
| 1777596022 | 6.67° C | 82% | 1024.7 hPa | 0 mm | - | - | - |
| 1777594234 | 6.67° C | 81% | 1024.8 hPa | 0 mm | - | - | - |
| 1777593631 | 7.22° C | 81% | 1024.9 hPa | 0 mm | - | - | - |
| 1777590637 | 7.78° C | 80% | 1024.8 hPa | 0 mm | - | - | - |
| 1777585854 | 8.33° C | 77% | 1024.7 hPa | 0 mm | - | - | - |
| 1777579824 | 10.56° C | 69% | 1024.2 hPa | 0 mm | - | - | - |
| 1777579222 | 10.56° C | 69% | 1024.1 hPa | 0 mm | - | - | - |
| 1777577473 | 11.67° C | 64% | 1024.1 hPa | 0 mm | - | - | - |
| 1777576830 | 12.22° C | 62% | 1023.9 hPa | 0 mm | - | - | - |
| 1777574418 | 14.44° C | 49% | 1023.6 hPa | 0 mm | - | - | - |
| 1777570821 | 15° C | 48% | 1023.1 hPa | 0 mm | - | - | - |
| 1777566621 | 15.56° C | 50% | 1022.7 hPa | 0 mm | - | - | - |
| 1777564832 | 15.56° C | 51% | 1022.5 hPa | 0 mm | - | - | - |
| 1777564229 | 16.11° C | 51% | 1022.6 hPa | 0 mm | - | - | - |
| 1777563024 | 15.56° C | 52% | 1022.6 hPa | 0 mm | - | - | - |
| 1777559447 | 16.11° C | 50% | 1022.6 hPa | 0 mm | - | - | - |
* Rain latest hour (hover to see other rain measurements)
** Current wind speed in m/s (hover to see current wind gust speed)